Weather History for Sioux City, IA

Change the Weather History Date:

Tuesday, October 22, 2013

  Actual Average Record
Temperature  
Mean Temperature 39 °F 48 °F  
Max Temperature 45 °F 61 °F 85 °F (2003)
Min Temperature 32 °F 36 °F 17 °F (1976)
Degree Days  
Heating Degree Days 26 17  
Month to date heating degree days 251 283  
Since 1 July heating degree days 316 430  
Cooling Degree Days 0 0  
Month to date cooling degree days 7 8  
Year to date cooling degree days 960 869  
Growing Degree Days 0 (Base 50)    
Moisture  
Dew Point 36 °F    
Average Humidity 83    
Maximum Humidity 92    
Minimum Humidity 73    
Precipitation  
Precipitation 0.18 in 0.06 in 2.25 in (2008)
Month to date precipitation 3.52 1.68  
Year to date precipitation 25.09 25.18  
Snow  
Snow 0.00 in 0.00 in 0.60 in (2002)
Month to date snowfall 0.0 0.4  
Since 1 July snowfall 0.0 0.4  
Since 1 September snowfall 0.0 0.4  
Snow Depth 0.00 in    
Sea Level Pressure  
Sea Level Pressure 30.02 in    
Wind  
Wind Speed 7 mph (North)    
Max Wind Speed 15 mph    
Max Gust Speed 17 mph    
Visibility 10 miles    
Events Rain    
T = Trace of Precipitation, MM = Missing Value Source: NWS Daily Summary

Daily Weather History Graph

Daily Weather History Graph

Search for Another Location

Airport:

Trip Planner

Search our weather history database for the weather conditions in past years. The results will help you decide how hot, cold, wet, or windy it might be!

Date:

Astronomy

Oct. 22, 2013 Rise Set
Actual Time 7:46 AM CDT 6:32 PM CDT
Civil Twilight 7:18 AM CDT 7:00 PM CDT
Nautical Twilight 6:45 AM CDT 7:33 PM CDT
Astronomical Twilight 6:13 AM CDT 8:06 PM CDT
Moon 9:10 PM CDT (10/22) 11:19 AM CDT (10/22)
Length of Visible Light 11h 42m
Length of Day
10h 45m
Waning Gibbous, 86% of the Moon is Illuminated
Oct 22
Waning Gibbous
Oct 26
Last Quarter
Nov 3
New
Nov 9
First Quarter
Nov 17
Full

Hourly Weather History & Observations

Time (CDT) Temp. Windchill Dew Point Humidity Pressure Visibility Wind Dir Wind Speed Gust Speed Precip Events Conditions
12:52 AM 44.1 °F - 42.1 °F 93% 29.94 in 10.0 mi Calm Calm - 0.01 in Rain Light Rain
1:52 AM 45.0 °F - 42.1 °F 90% 29.93 in 10.0 mi Calm Calm - 0.01 in Rain Light Rain
2:52 AM 45.0 °F 43.5 °F 42.1 °F 90% 29.93 in 10.0 mi North 3.5 mph - 0.01 in   Overcast
3:52 AM 44.1 °F - 43.0 °F 96% 29.91 in 10.0 mi Calm Calm - N/A   Overcast
4:19 AM 44.6 °F - 42.8 °F 93% 29.89 in 10.0 mi Calm Calm - N/A   Overcast
4:52 AM 45.0 °F 43.5 °F 42.1 °F 90% 29.90 in 10.0 mi NE 3.5 mph - 0.00 in   Overcast
5:34 AM 44.6 °F 40.2 °F 41.0 °F 87% 29.88 in 7.0 mi NE 8.1 mph - 0.02 in Rain Light Rain
5:52 AM 42.1 °F 36.6 °F 39.9 °F 92% 29.91 in 6.0 mi NNE 9.2 mph - 0.04 in Rain Rain
6:18 AM 39.2 °F 33.6 °F 37.4 °F 93% 29.91 in 5.0 mi NNE 8.1 mph - 0.10 in Rain Rain
6:37 AM 39.2 °F 33.6 °F 37.4 °F 93% 29.90 in 10.0 mi ENE 8.1 mph - 0.12 in Rain Light Rain
6:52 AM 39.0 °F 33.4 °F 37.0 °F 93% 29.93 in 10.0 mi NE 8.1 mph - 0.12 in   Overcast
7:32 AM 39.2 °F 33.6 °F 37.4 °F 93% 29.92 in 9.0 mi NNE 8.1 mph - N/A   Overcast
7:52 AM 39.0 °F 34.0 °F 37.0 °F 93% 29.95 in 9.0 mi North 6.9 mph - 0.00 in Rain Light Rain
8:09 AM 39.2 °F 35.0 °F 37.4 °F 93% 29.94 in 8.0 mi North 5.8 mph - 0.00 in   Overcast
8:52 AM 39.0 °F 32.8 °F 36.0 °F 89% 29.99 in 10.0 mi North 9.2 mph - 0.00 in   Overcast
9:52 AM 37.9 °F 30.5 °F 35.1 °F 89% 30.02 in 10.0 mi North 11.5 mph - 0.00 in Rain Light Rain
10:52 AM 37.9 °F 30.9 °F 36.0 °F 93% 30.04 in 10.0 mi North 10.4 mph - 0.00 in Rain Light Rain
11:13 AM 37.4 °F 30.3 °F 35.6 °F 93% 30.03 in 10.0 mi North 10.4 mph - 0.00 in   Overcast
11:30 AM 39.2 °F 34.2 °F 35.6 °F 87% 30.03 in 10.0 mi NNE 6.9 mph - 0.00 in Rain Light Rain
11:52 AM 37.9 °F 31.5 °F 35.1 °F 89% 30.06 in 10.0 mi NNE 9.2 mph - 0.00 in   Overcast
12:52 PM 39.0 °F 33.4 °F 34.0 °F 82% 30.08 in 10.0 mi North 8.1 mph - N/A   Overcast
1:52 PM 39.0 °F 32.8 °F 34.0 °F 82% 30.08 in 10.0 mi North 9.2 mph - N/A   Overcast
2:20 PM 39.2 °F 33.0 °F 33.8 °F 81% 30.05 in 10.0 mi North 9.2 mph - N/A   Overcast
2:52 PM 39.9 °F 33.9 °F 34.0 °F 79% 30.08 in 10.0 mi North 9.2 mph - N/A   Overcast
3:52 PM 41.0 °F 34.7 °F 34.0 °F 76% 30.09 in 10.0 mi North 10.4 mph - N/A   Overcast
4:36 PM 41.0 °F 34.7 °F 33.8 °F 76% 30.08 in 10.0 mi NW 10.4 mph - N/A   Overcast
4:52 PM 41.0 °F 33.9 °F 33.1 °F 73% 30.11 in 10.0 mi NW 12.7 mph - N/A   Overcast
5:52 PM 39.9 °F 33.4 °F 32.0 °F 73% 30.12 in 10.0 mi NW 10.4 mph - N/A   Overcast
6:52 PM 39.9 °F 36.7 °F 33.1 °F 77% 30.13 in 10.0 mi NNW 4.6 mph - N/A   Overcast
7:52 PM 39.9 °F 36.7 °F 32.0 °F 73% 30.13 in 10.0 mi NNW 4.6 mph - N/A   Overcast
8:52 PM 39.0 °F 35.7 °F 33.1 °F 79% 30.13 in 10.0 mi NW 4.6 mph - N/A   Overcast
9:52 PM 39.0 °F 35.7 °F 34.0 °F 82% 30.14 in 10.0 mi West 4.6 mph - N/A   Overcast
10:52 PM 37.9 °F 35.5 °F 34.0 °F 86% 30.15 in 10.0 mi WNW 3.5 mph - N/A   Overcast
11:52 PM 35.1 °F 32.2 °F 33.1 °F 92% 30.14 in 10.0 mi WNW 3.5 mph - N/A   Clear